Location: B?jaj?g
(11.7167°N, 92.6667°E)
Time: 15:22:58
(UTC+00:00)

TIMED - Pass Details

Date: 18 September 2020
Orbit: 603 x 604 km, 74.1° (Epoch: 27 October)

Event Time Altitude Azimuth Distance (km) Brightness Sun altitude
Rises 12:41:24 0° 351° (N) 2,843 8.1 -13.9°
Reaches altitude 10° 12:43:38 10° 353° (N) 1,941 7.2 -14.4°
Maximum altitude 12:47:57 70° 77° (ENE) 641 4.4 -15.5°
Drops below altitude 10° 12:52:16 10° 161° (SSE) 1,942 6.9 -16.5°
Enters shadow 12:53:56 - 163° (SSE) 2,615 7.5 -16.9°
